Location: Unspecified
(41.1850°N, 73.2650°W)
Time: 13:41:58
(UTC+00:00)

SL-08 R/B - Pass Details

Date: 17 March 2026
Orbit: 946 x 992 km, 83.0° (Epoch: 18 April)

Event Time Altitude Azimuth Distance (km) Brightness Sun altitude
Exits shadow 01:25:49 71° 78° (ENE) 1,000 4.3 -27.3°
Drops below altitude 10° 01:31:41 10° 12° (NNE) 2,675 6.9 -28.3°
Sets 01:34:11 0° 10° (N) 3,624 7.7 -28.7°
